Location: Drummondville
(45.8830°N, 72.4830°W)
Time: 15:38:06
(UTC-05:00)

ISS - Pass Details

Date: 10 November 2017
Orbit: 401 x 407 km, 51.6° (Epoch: 25 November)

Event Time Altitude Azimuth Distance (km) Brightness Sun altitude
Exits shadow 04:38:21 26° 22° (NNE) 826 -2.1 -21.9°
Drops below altitude 10° 04:40:39 10° 64° (ENE) 1,456 -0.2 -21.5°
Sets 04:42:55 0° 76° (ENE) 2,315 1.3 -21.1°
